CONSULTA PERSONALIZADA Alfaro
      Predicción AEMET      
Valores extremos - medios de hoy
Fecha T (C) P (l/m2) Hr (%) Rs (W/m2) VV (km/h) DV Tint.(C)
Max Med Min Acu Med Med Max Med Max Med Min
 19-04-2018   22,2   16,9   12,3   0,0   61   375   33,8   143   25,0   21,8   19,4 
Datos de hoy
Fecha T (C) P (l/m2) Hr (%) Rs (W/m2) VV (km/h) DV Tint.(C)
Max Med Min Acu Med Med Max Med Max Med Min
 19-04-2018 17:30:00   22,0   21,7   21,5   0,0   46   643   30,2   138   24,4   24,3   24,3 
 19-04-2018 17:15:00   22,2   21,8   21,6   0,0   46   686   33,8   143   24,3   24,2   24,0 
 19-04-2018 17:00:00   22,2   21,8   21,4   0,0   47   725   26,3   136   24,0   23,9   23,8 
 19-04-2018 16:45:00   22,2   21,8   21,4   0,0   47   764   29,5   141   23,8   23,7   23,6 
 19-04-2018 16:30:00   22,2   21,9   21,6   0,0   47   797   27,0   144   23,6   23,5   23,4 
 19-04-2018 16:15:00   22,1   21,8   21,4   0,0   46   830   29,9   141   23,4   23,3   23,1 
 19-04-2018 16:00:00   22,1   21,8   21,3   0,0   46   856   25,9   134   23,1   23,0   22,9 
 19-04-2018 15:45:00   22,1   21,7   21,2   0,0   46   882   27,4   141   22,9   22,8   22,7 
 19-04-2018 15:30:00   22,0   21,6   21,3   0,0   45   904   27,7   142   22,7   22,6   22,4 
 19-04-2018 15:15:00   22,1   21,5   21,1   0,0   45   918   24,1   132   22,4   22,3   22,2 
 19-04-2018 15:00:00   21,7   21,3   20,9   0,0   45   934   27,7   135   22,2   22,1   22,0 
 19-04-2018 14:45:00   22,0   21,3   20,8   0,0   43   945   30,6   135   22,0   21,9   21,8 
 19-04-2018 14:30:00   21,3   21,0   20,7   0,0   43   953   28,1   138   21,8   21,7   21,6 
 19-04-2018 14:15:00   21,3   20,9   20,6   0,0   43   954   26,3   128   21,6   21,5   21,4 
 19-04-2018 14:00:00   21,2   20,8   20,5   0,0   43   952   29,5   135   21,4   21,3   21,3 
 19-04-2018 13:45:00   21,4   20,8   20,4   0,0   45   943   28,4   131   21,3   21,2   21,1 
 19-04-2018 13:30:00   20,9   20,5   20,1   0,0   46   937   25,2   133   21,1   21,0   20,9 
 19-04-2018 13:15:00   20,9   20,2   19,5   0,0   48   928   24,5   141   20,9   20,8   20,8 
 19-04-2018 13:00:00   20,1   19,7   19,3   0,0   49   916   29,2   132   20,8   20,6   20,5 
 19-04-2018 12:45:00   20,2   19,8   19,4   0,0   49   896   25,2   132   20,5   20,4   20,4 
 19-04-2018 12:30:00   19,9   19,7   19,4   0,0   49   872   20,9   142   20,4   20,3   20,2 
 19-04-2018 12:15:00   19,6   19,2   18,8   0,0   50   847   23,8   140   20,2   20,1   20,1 
 19-04-2018 12:00:00   19,0   18,8   18,5   0,0   52   815   23,8   139   20,1   20,0   20,0 
 19-04-2018 11:45:00   19,0   18,6   18,3   0,0   52   783   21,6   135   20,0   20,0   19,9 
 19-04-2018 11:30:00   19,0   18,4   18,1   0,0   54   746   17,6   131   19,9   19,9   19,8 
 19-04-2018 11:15:00   18,5   18,1   17,6   0,0   55   705   13,3   133   19,8   19,8   19,7 
 19-04-2018 11:00:00   17,7   17,3   17,1   0,0   58   660   14,4   128   19,7   19,7   19,7 
 19-04-2018 10:45:00   17,2   16,7   16,3   0,0   62   613   12,6   135   19,7   19,7   19,6 
 19-04-2018 10:30:00   16,6   16,3   16,1   0,0   64   563   15,8   124   19,7   19,6   19,6 
 19-04-2018 10:15:00   16,5   16,1   15,5   0,0   66   510   11,5   107   19,6   19,6   19,5 
 19-04-2018 10:00:00   15,6   15,1   14,7   0,0   72   458   10,8   87   19,6   19,5   19,4 
 19-04-2018 09:45:00   16,0   15,6   15,0   0,0   67   402   9,4   99   19,7   19,6   19,6 
 19-04-2018 09:30:00   16,3   15,8   15,2   0,0   61   342   6,5   136   19,8   19,7   19,7 
 19-04-2018 09:15:00   15,3   14,9   14,4   0,0   64   284   7,6   152   19,8   19,7   19,7 
 19-04-2018 09:00:00   14,4   13,9   13,4   0,0   68   225   6,5   181   19,9   19,8   19,8 
 19-04-2018 08:45:00   13,4   13,0   12,5   0,0   72   172   10,1   192   20,0   19,9   19,9 
 19-04-2018 08:30:00   12,7   12,5   12,3   0,0   73   123   10,1   199   20,1   20,1   20,0 
 19-04-2018 08:15:00   12,9   12,7   12,5   0,0   72   78   10,1   200   20,3   20,2   20,1 
 19-04-2018 08:00:00   13,4   13,1   12,5   0,0   70   43   9,0   200   20,4   20,3   20,3 
 19-04-2018 07:45:00   13,4   13,2   13,0   0,0   70   20   8,3   203   20,5   20,5   20,4 
 19-04-2018 07:30:00   13,0   12,8   12,5   0,0   73   5   8,3   185   20,7   20,6   20,5 
 19-04-2018 07:15:00   12,6   12,4   12,4   0,0   75   0   7,9   192   20,9   20,8   20,7 
 19-04-2018 07:00:00   13,0   12,9   12,6   0,0   74   0   10,8   216   21,0   20,9   20,9 
 19-04-2018 06:45:00   12,9   12,7   12,6   0,0   74   0   6,1   172   21,2   21,1   21,0 
 19-04-2018 06:30:00   13,2   12,9   12,7   0,0   73   0   10,1   125   21,3   21,2   21,2 
 19-04-2018 06:15:00   13,5   13,4   13,2   0,0   71   0   14,0   153   21,5   21,4   21,3 
 19-04-2018 06:00:00   13,3   13,2   12,9   0,0   73   0   13,3   143   21,6   21,5   21,5 
 19-04-2018 05:45:00   13,3   13,2   13,1   0,0   73   0   12,2   157   21,7   21,7   21,6 
 19-04-2018 05:30:00   13,5   13,4   13,3   0,0   72   0   15,8   154   21,9   21,8   21,7 
 19-04-2018 05:15:00   13,5   13,4   13,3   0,0   73   0   15,5   154   22,1   22,0   21,9 
 19-04-2018 05:00:00   13,5   13,4   13,3   0,0   74   0   11,2   159   22,2   22,2   22,1 
 19-04-2018 04:45:00   13,5   13,4   13,4   0,0   74   0   13,3   151   22,4   22,3   22,2 
 19-04-2018 04:30:00   13,4   13,3   13,2   0,0   75   0   13,0   139   22,5   22,5   22,4 
 19-04-2018 04:15:00   14,1   13,7   13,4   0,0   73   0   13,7   138   22,6   22,6   22,5 
 19-04-2018 04:00:00   14,3   14,2   14,1   0,0   70   0   14,0   137   22,7   22,7   22,6 
 19-04-2018 03:45:00   14,6   14,4   14,2   0,0   70   0   15,1   136   22,9   22,8   22,7 
 19-04-2018 03:30:00   14,9   14,7   14,6   0,0   68   0   13,7   147   23,0   23,0   22,9 
 19-04-2018 03:15:00   15,4   15,2   14,9   0,0   66   0   17,3   134   23,0   23,0   22,9 
 19-04-2018 03:00:00   15,4   15,2   15,0   0,0   67   0   18,0   130   23,2   23,1   23,0 
 19-04-2018 02:45:00   15,1   14,9   14,8   0,0   70   0   14,4   134   23,2   23,2   23,1 
 19-04-2018 02:30:00   15,1   15,0   14,8   0,0   70   0   19,1   131   23,1   22,9   22,7 
 19-04-2018 02:15:00   15,6   15,4   15,1   0,0   68   0   21,2   123   22,9   22,8   22,6 
 19-04-2018 02:00:00   16,2   15,9   15,6   0,0   65   0   25,2   127   23,3   23,2   22,9 
 19-04-2018 01:45:00   16,7   16,5   16,2   0,0   63   0   22,3   127   23,3   23,3   23,2 
 19-04-2018 01:30:00   16,6   16,5   16,3   0,0   63   0   19,8   121   23,6   23,4   23,2 
 19-04-2018 01:15:00   16,8   16,7   16,5   0,0   62   0   22,0   126   23,8   23,7   23,5 
 19-04-2018 01:00:00   16,9   16,8   16,7   0,0   62   0   18,0   125   23,9   23,8   23,7 
 19-04-2018 00:45:00   16,8   16,8   16,7   0,0   62   0   18,7   126   24,5   24,2   23,9 
 19-04-2018 00:30:00   17,5   17,2   16,8   0,0   61   0   18,7   131   24,6   24,6   24,5 
 19-04-2018 00:15:00   17,8   17,5   17,4   0,0   60   0   18,4   134   24,7   24,7   24,6 
 19-04-2018 00:00:00   18,0   17,8   17,7   0,0   58   0   19,8   135   25,0   24,9   24,7 
Datos diarios
Fecha desde Fecha hasta       Visualizar         Exportar Excel  
     
Alfaro - Fecha desde: 12-04-2018 - Fecha hasta: 18-04-2018
Fecha T (C) P (l/m2) Hr (%) Rs (W/m2) VV (km/h) DV Tint.(C)
Max Med Min Acu Med Med Max Med Max Med Min
 18-04-2018   24,0   17,9   11,8   0,0   59   313   33,8   149   25,9   22,0   18,5 
 17-04-2018   22,0   14,1   6,4   0,0   66   328   15,8   171   24,0   17,8   13,5 
 16-04-2018   15,8   11,6   8,8   13,2   77   216   45,0   293   19,9   16,1   13,3 
 15-04-2018   19,2   13,0   7,5   0,0   76   229   27,0   176   20,9   18,2   15,1 
 14-04-2018   18,5   11,8   6,8   3,3   73   318   22,0   131   21,3   15,8   12,1 
 13-04-2018   14,8   10,7   8,1   13,5   77   170   26,3   149   17,1   15,0   13,0 
 12-04-2018   16,2   11,1   5,6   5,8   69   232   38,9   230   17,1   11,4   8,2 
Datos mensuales
        Exportar      
   
Alfaro
Fecha T (C) P (l/m2) Hr (%) Rs (W/m2) VV (km/h) DV Tint.(C)
Max Med Min Acu Med Med Max Med Max Med Min
 Abril -2018   24,0   11,9   2,2   102,0   69   197   65,2   190   25,9   15,4   7,0 
 Marzo -2018   19,2   9,3   1,0   41,0   66   172   76,0   217   21,6   12,0   4,0 
 Febrero -2018   17,7   5,6   -2,9   19,7   73   111   64,8   279   24,1   12,9   3,0 
 Enero -2018   17,9   7,7   -3,0   52,2   79   90   56,9   259   23,9   16,8   10,7 
 Diciembre -2017   16,9   6,7   -2,3   10,4   77   76   72,0   259   22,4   15,6   9,3 
 Noviembre -2017   20,1   9,9   -0,7   4,2   67   105   63,4   258   22,4   16,0   8,6 
 Octubre -2017   26,9   16,8   5,9   8,5   64   170   49,7   241   28,0   20,8   12,1 
 Septiembre-2017   29,9   18,0   8,0   5,5   63   219   51,8   230   34,0   22,9   15,4 
 Agosto -2017   36,3   22,5   12,1   48,1   58   271   96,5   224   37,9   27,9   19,0 
 Julio -2017   35,6   23,0   11,5   11,6   56   322   58,7   238   37,8   28,5   17,1 
 Junio -2017   38,3   22,6   11,4   53,2   60   296   61,2   220   39,6   28,5   15,2 
 Mayo -2017   34,2   18,6   4,0   31,6   56   286   61,2   184   36,8   24,4   14,6 
PARÁMETROS
Desc. Abr. Descripción
T Temperatura del aire
P Precipitación acumulada
Hr Humedad relativa del aire
Rs Radiación solar
VV Velocidad del viento
DV Dirección del viento
Tint Temperatura interior
 
FUNCIONES
Desc. Abr. Descripción
Max Máxima
Med Media
Min Mínima
Acu Acumulado